星链-3191 (STARLINK-3191 )

导读

STARLINK-3191是美国SpaceX公司星链星座的成员,于北京时间2021年12月2日发射入轨,属于星链低轨卫星互联网星座的组网卫星。它运行在近地轨道,搭载卫星通信载荷,依托星座整体架构,为全球偏远地区提供高速低延迟宽带互联网接入服务,是星链大规模组网进程中发射的工作卫星之一,助力星链实现全球覆盖。

Basic Information
目录编号:
49770
目录名称:
STARLINK-3191
国际标识:
2021-115AY
轨道中心:
EARTH
卫星名称:
星链-3191
卫星全名:
星链-3191 (STARLINK-3191 )
卫星状态:
在轨 (已飞行1658 天)
发射日期:
2021-12-02 UTC
国别 :
美国 (US)
星等 :
--
Orbit Information
数据来源 国际轨道数据 AOE轨道数据
星历时间 2026-06-17T07:07:28+0800
10小时前
查看轨道信息
2026-06-15T00:00:00+0800
2天前
查看轨道信息
半长轴 6917.898km 6917.904km
偏心率 0.0001448 0.0001268
轨道倾角 53.161° 53.161°
近地点辐角 93.687° 108.869°
升交点赤经 53.418° 63.747°
平近点角 266.428° 8.375°
近地点 538.759km 538.889km
远地点 540.763km 540.645km
周期 95.438分钟 95.438分钟
每日圈数 15.088345 15.088324
Detailed Information
固有亮度:
5
最大亮度:
2.5
卫星平台:
Starlink v1.5
覆盖范围:
全球
运营商:
太空探索技术公司
运营商所在国:
美国
制造商(研发单位):
太空探索技术公司
制造商所在国:
美国
使用方式:
暂无
Satellite Introduction
星链(Starlink)计划是由太空探索技术公司(SpaceX)提出的一个巨型低轨卫星互联网星座项目,计划在2019年至2024年间在太空搭建由约1.2万颗卫星组成的“星链”网络,其中1584颗将部署在地球上空550千米处的近地轨道,并从2020年开始工作。该卫星仍在工作。
2D Orbit Map
3D Orbit Map
Orbit Altitude Analysis Chart
Orbit Inclination Analysis Chart
Orbit Comprehensive Analysis Chart
View Comprehensive Chart